Racecast

Caden Bodine

Temperance Bedford (MI) · 12 · SECMI D1MONROE · Compare head to head

Athlete rating 110.6 2019 XC season
Best race 118.9 XC
Races 55
Seasons 5 2015 — 2019

RankedNation #56468·MI #2395·MI D1 #1507·SEC #159·Team #53 ?

Rating scale ?
Speed rating — all races

Cross Country

XC speed rating

2019 XC 108.3

Temperance Bedford (MI) · Grade 12

Date Meet Event Result Place Rating Difficulty PR/SR Flags
2019-10-26 Lake Erie Metro Park OFFICIAL 5000m 18:59.9 35th · 3rd on team 109.8 +0.007 ★CR CSR
2019-10-17 Hudson Mills Metropark - OFFICIAL 5000m 18:39.3 51st · 2nd on team 110.5 -0.006 ★CR CSR
2019-10-12 Munson Park 5000m 18:52 16th · 5th on team 110.7 +0.007 ★CR CSR
2019-10-05 Portage West MS 5000m 18:49 161st · 4th on team 109.3 -0.003 ★CR CSR
2019-09-28 Lake Erie Metro Park OFFICIAL 5000m 19:19.6 27th · 2nd on team 107.3 +0.007 CSR
2019-09-24 Indian Creek OFFICIAL 5000m 18:29 41st · 8th on team 113.5 +0.004 ★PR ★CR SR CSR RSR
2019-09-21 Ella Sharp Park OFFICIAL 5000m 19:17.9 210th · 7th on team 107.5 -0.001 SR CSR RSR
2019-09-10 Hudson Mills Metropark - OFFICIAL 5000m 19:51 40th · 1st on team 103.3 -0.006 SR CSR RSR
2019-09-07 Hedges Boyer Park 5000m 20:03.6 196th · 4th on team 103.1 -0.003 SR CSR RSR

2018 XC 104.7

Temperance Bedford (MI) · Grade 11

Date Meet Event Result Place Rating Difficulty PR/SR Flags
2018-10-27 Lake Erie Metro Park OFFICIAL 5000m 19:55.2 67th · 12th on team 104.8 +0.007
2018-10-18 Hudson Mills Metropark - OFFICIAL 5000m 20:40.1 180th · 16th on team 99.4 -0.006 CSR
2018-10-13 Munson Park 5000m 22:13.7 62nd · 19th on team 93.4 +0.007 CR CSR
2018-10-09 Indian Creek OFFICIAL 5000m 21:01 20th · 15th on team 100.7 +0.004 CSR
2018-09-29 Lake Erie Metro Park OFFICIAL 5000m 19:05.3 48th · 7th on team 109.3 +0.007 CR CSR
2018-09-25 Cass Benton Park OFFICIAL 5000m 19:32.3 23rd · 1st on team 109.4 +0.034 ★CR CSR RSR
2018-09-21 Ella Sharp Park OFFICIAL 5000m 19:14.7 52nd · 6th on team 108.7 -0.001 ★CR CSR
2018-09-06 Willow Metropark OFFICIAL 5000m 18:47.1 33rd · 2nd on team 109.3 -0.003 PR ★CR SR CSR RSR
2018-08-31 Oakland University 4000m 15:23.6 26th · 3rd on team 107.3 +0.013 ★PR ★CR SR CSR RSR

2017 XC 104.6

Temperance Bedford (MI) · Grade 10

Date Meet Event Result Place Rating Difficulty PR/SR Flags
2017-10-28 Lake Erie Metro Park OFFICIAL 5000m 19:35.2 57th · 9th on team 105.8 +0.007
2017-10-19 Hudson Mills Metropark - OFFICIAL 5000m 19:14.1 105th · 8th on team 107.3 -0.006 PR CR SR CSR
2017-10-10 Indian Creek OFFICIAL 5000m 19:51.3 14th · 12th on team 104.6 +0.004 CR CSR
2017-10-07 Portage West MS 5000m 19:54.7 249th · 8th on team 104.6 -0.003 CR CSR
2017-09-30 Lake Erie Metro Park OFFICIAL 5000m 19:23.3 56th · 11th on team 106.4 +0.007 CR CSR
2017-09-22 Ella Sharp Park OFFICIAL 5000m 19:19 15th · 9th on team 109.0 -0.001 PR CR SR CSR RSR
2017-09-12 Hudson Mills Metropark - OFFICIAL 5000m 19:23.9 72nd · 6th on team 105.9 -0.006 PR CR SR CSR RSR
2017-09-09 Hedges Boyer Park 5000m 19:46.7 117th · 4th on team 104.1 -0.003 PR ★CR SR CSR RSR
2017-09-01 Oakland University 4000m 15:33.9 36th · 5th on team 103.6 +0.013 PR CR SR CSR RSR
2017-08-26 Walsh Park 5000m 21:44.8 89th · 21st on team 95.2 +0.012 ★CR SR CSR RSR

2016 XC 99.0

Temperance Bedford (MI) · Grade 9

Date Meet Event Result Place Rating Difficulty PR/SR Flags
2016-10-29 Lake Erie Metro Park OFFICIAL 5000m 21:24.3 122nd · 17th on team 97.4 +0.007 CR CSR
2016-10-20 Hudson Mills Metropark - OFFICIAL 5000m 21:18.3 167th · 17th on team 96.0 -0.006
2016-10-15 Hudson Mills Metropark - OFFICIAL 5000m 20:13.3 75th · 11th on team 102.2 -0.006 PR CR SR CSR
2016-10-08 Portage West MS 5000m 20:19 362nd · 13th on team 101.4 -0.003 PR CR SR CSR
2016-10-01 Pearson's Metro Park 5000m 20:58.2 91st · 15th on team 98.3 +0.001 ★CR CSR
2016-09-27 Pioneer HS 5000m 20:39.9 80th · 9th on team 102.6 +0.018 ★CR CSR RSR
2016-09-23 Ella Sharp Park OFFICIAL 5000m 20:31.2 100th · 13th on team 101.1 -0.001 PR CR SR CSR RSR
2016-09-17 Springfield Oaks County Park OFFICIAL 5000m 22:15 146th · 10th on team 97.2 +0.019 ★CR CSR
2016-09-13 Heritage Park (Adrian) OFFICIAL 5000m 21:28.3 113th · 10th on team 99.8 +0.035 ★CR CSR RSR
2016-09-10 Hedges Boyer Park 5000m 20:57.4 323rd · 8th on team 98.8 -0.003 PR CR SR CSR RSR
2016-09-02 Oakland University 4000m 17:16 104th · 12th on team 94.6 +0.013 PR CR SR CSR RSR
2016-08-25 Heritage Park (Adrian) OFFICIAL 5000m 24:54.8 50th · 18th on team +0.035 PR CR SR CSR

2015 XC 105.8

Temperance Bedford (MI) · Grade 8

Date Meet Event Result Place Rating Difficulty PR/SR Flags
2015-10-24 Hudson Mills Metropark - OFFICIAL 3218m 12:55.8 12th · 1st on team 118.9 +0.020 ★PR ★CR ★R SR CSR RSR
2015-10-17 Munson Park 3200m 13:30.1 29th · 12th on team 110.4 +0.000
2015-10-14 Munson Park 3200m 13:24.8 48th · 7th on team 110.4 +0.000 ★PR ★CR SR CSR
2015-09-30 Hudson Mills Metropark - OFFICIAL 3200m 13:51.2 55th · 13th on team 110.3 +0.020 PR ★CR SR CSR
2015-09-26 Sterling State Park 3218m 13:54.9 41st · 10th on team 110.6 +0.019 PR ★CR R SR CSR RSR
2015-09-16 Mill Pond Park 3621m 15:41.5 45th · 10th on team 76.6 +0.073 ★PR ★CR SR CSR
2015-09-12 Hedges Boyer Park 3200m 14:00.8 26th · 10th on team 107.6 +0.015 PR ★CR R SR CSR RSR
2015-08-27 Eastwood HS 3200m 14:44.4 102nd · 9th on team 101.6 +0.017 PR ★CR R SR CSR RSR

Track & Field

TF speed rating

2019 TF 102.3

Temperance Bedford (MI) · Grade 11

Date Meet Event Result Place Rating Difficulty PR/SR Flags
2019-05-15 Eagle Invite 1600m 5:24.25 64th · 7th on team 107.1 -0.021 ★PR SR RSR
2019-05-15 Eagle Invite 3200m 12:21.26 19th · 2nd on team 101.3 -0.021
2019-04-30 SEC-R: Monroe & Bedford @ Skyline 3200m 11:42.23 14th · 6th on team 106.7 -0.021 ★PR SR RSR
2019-04-23 SEC Red Division - Bedford vs Saline 800m 2:32.35 20th · 6th on team 101.5 -0.026 ★PR SR RSR
2019-04-23 SEC Red Division - Bedford vs Saline 1600m 5:42.19 25th · 11th on team 101.6 -0.026 PR SR RSR
2019-04-09 SEC-R: Bedford @ Pioneer 1600m 5:53.1 29th · 12th on team 98.9 -0.017 PR SR RSR
2019-04-09 SEC-R: Bedford @ Pioneer 3200m 12:44.41 11th · 6th on team 98.9 -0.017 PR SR RSR